Weather in Toecksfors

Sweden     59°30′32″N   11°50′32″E
temp.,
°C
wind,
m/s
gust,
m/s
humid.,
%
clouds,
%
prec.,
mm/h
press.,
hPa
HPBL,
m
27 july, tue
tue2723:00+16e21394100 2.9 1014436
02:00+16e3993100 2.9 1014261
05:00+15ene3109598 0.1 1013241
08:00+17e3985100 0.1 1012326
11:00+15ne3896100 5.3 1012342
14:00+16e41297100 12.3 1010700
17:00+19e3691100 1.6 1009621
20:00+18e3894100 3.7 1007405
28 july, wed
wed2823:00+16e3798100 4.3 1008221
02:00+16e1199100 5.2 100753
05:00+15se2699100 3.4 1006229
08:00+15ese3998100 10.4 1006440
11:00+19se358993 1.5 1005688
14:00+18ssw369278 5.8 1005638
17:00+19sw4577100 1.4 1005910
20:00+17sw358512 1.7 1004473
29 july, thu
thu2923:00+13s229921 0.0 100457
02:00+12se119925 0.0 100325
05:00+12ese119984 0.1 100220
08:00+14sse3594100 0.3 1000384
11:00+17ssw358399 1.1 999783
14:00+18ssw4574100 3.7 9981099
17:00+14ssw4995100 2.9 997600
20:00+12ssw3996100 4.3 996581
30 july, fri
fri3023:00+12s2997100 0.3 994366
02:00+13ssw31096100 0.9 992471
05:00+12w279795 1.2 990196
08:00+12wsw3997100 1.8 990326
11:00+14w3793100 0.4 991422
14:00+19w477322 0.8 991873
17:00+21sw2460100 0.5 991339
20:00+17sw268299 1.3 992224
31 july, sat
sat3123:00+12wsw119592 0.0 99511
02:00+12wsw0095100 0.0 99610
05:00+11e119696 0.0 99610
08:00+15ese237995 0.0 997338
11:00+19se236785 0.2 9971127
14:00+16sse2484100 1.7 997250
17:00+17ssw237385 0.4 997800
20:00+15nnw1188100 0.7 99752